User: anonymous   Login
Location: Clyde
(45.1830°S, 169.3170°E)
Time: 12:23:53
(UTC+13:00)
Language:

Meteor 1-25 Rocket - Orbit

View from above orbital plane
View from above orbital plane
View from above satellite
View from above satellite

Ground track
Ground track

The orbit data is extracted from the following two-line orbital elements,

1  8846U 76043B   19077.85792217 -.00000038  00000-0 -29003-4 0  9992
2  8846  81.2269  49.5464 0036647  12.4027 347.8036 14.08591529201121
Epoch (UTC): 18 March 2019 20:35:24
Eccentricity: 0.0036647
inclination: 81.2269°
perigee height: 837 km
apogee height: 891 km
right ascension of ascending node: 49.5464°
argument of perigee: 12.4027°
revolutions per day: 14.08591529
mean anomaly at epoch: 347.8036°
orbit number at epoch: 20112

The dashed part of the orbit path shows where the satellite is in the earth's shadow,  

DLR